This is the latest recevied weather packets stored in our database for station/object W0PE-1. If no packets are shown the sender has not sent any weather packets the latest 10 day(s).
| Time | Temp. | Humidity | Pressure | Rain* | Wind** | Luminosity | Snow |
|---|---|---|---|---|---|---|---|
| 1777952723 | 15° C | 74% | 1014.4 hPa | 0 mm | - | - | - |
| 1777951825 | 15° C | 74% | 1014.4 hPa | 0 mm | - | - | - |
| 1777950923 | 15.56° C | 73% | 1014.1 hPa | 0 mm | - | - | - |
| 1777950022 | 15.56° C | 72% | 1014.2 hPa | 0 mm | - | - | - |
| 1777949122 | 16.11° C | 70% | 1014.1 hPa | 0 mm | - | - | - |
| 1777948221 | 16.67° C | 69% | 1014.2 hPa | 0 mm | - | - | - |
| 1777947321 | 16.67° C | 65% | 1014 hPa | 0 mm | - | - | - |
| 1777946420 | 16.67° C | 64% | 1013.9 hPa | 0 mm | - | - | - |
| 1777945520 | 17.22° C | 64% | 1013.9 hPa | 0 mm | - | - | - |
| 1777944619 | 17.22° C | 63% | 1013.9 hPa | 0 mm | - | - | - |
| 1777943719 | 17.22° C | 62% | 1014 hPa | 0 mm | - | - | - |
| 1777942818 | 17.78° C | 62% | 1014 hPa | 0 mm | - | - | - |
| 1777941918 | 17.78° C | 60% | 1014 hPa | 0 mm | - | - | - |
| 1777941021 | 17.78° C | 59% | 1014.1 hPa | 0 mm | - | - | - |
| 1777940117 | 17.78° C | 58% | 1014.1 hPa | 0 mm | - | - | - |
| 1777939217 | 17.78° C | 58% | 1014 hPa | 0 mm | - | - | - |
| 1777938321 | 17.78° C | 59% | 1013.9 hPa | 0 mm | - | - | - |
| 1777937416 | 18.33° C | 60% | 1013.9 hPa | 0 mm | - | - | - |
| 1777936514 | 18.33° C | 59% | 1013.9 hPa | 0 mm | - | - | - |
| 1777935614 | 18.33° C | 58% | 1013.9 hPa | 0 mm | - | - | - |
| 1777934714 | 18.89° C | 56% | 1014 hPa | 0 mm | - | - | - |
| 1777933814 | 19.44° C | 56% | 1014.1 hPa | 0 mm | - | - | - |
| 1777932913 | 20° C | 58% | 1014.3 hPa | 0 mm | - | - | - |
| 1777932013 | 20.56° C | 57% | 1014.3 hPa | 0 mm | - | - | - |
| 1777931112 | 20.56° C | 55% | 1014.3 hPa | 0 mm | - | - | - |
* Rain latest hour (hover to see other rain measurements)
** Current wind speed in m/s (hover to see current wind gust speed)